星链-2377 (STARLINK-2377 )

导读 | 豆包AI

STARLINK-2377是美国SpaceX公司星链(Starlink)卫星互联网星座的一员,于2021年3月11日发射升空。星链计划旨在通过低轨卫星星座,为全球偏远、网络基础设施匮乏地区提供高速低延迟的宽带互联网服务。作为首批组网星链卫星之一,它运行在近地轨道,支撑星座全球覆盖能力,助力实现全域互联,也引发了天文观测与空间碎片等领域的广泛讨论。

Basic Information
目录编号:
47797
目录名称:
STARLINK-2377
国际标识:
2021-018L
轨道中心:
EARTH
卫星名称:
星链-2377
卫星全名:
星链-2377 (STARLINK-2377 )
卫星状态:
在轨 (已飞行1829 天)
发射日期:
2021-03-11 UTC
国别 :
美国 (US)
星等 :
--
Orbit Information
数据来源 国际轨道数据 AOE轨道数据
星历时间 2026-03-14T02:50:39+0800
21小时前
查看轨道信息
2026-03-14T09:00:00+0800
15小时前
查看轨道信息
半长轴 6855.833km 6855.82km
偏心率 0.0001162 0.0001109
轨道倾角 53.158° 53.158°
近地点辐角 59.670° 61.347°
升交点赤经 236.047° 234.859°
平近点角 300.442° 271.756°
近地点 476.899km 476.922km
远地点 478.493km 478.444km
周期 94.156分钟 94.156分钟
每日圈数 15.293696 15.29374
Detailed Information
固有亮度:
5
最大亮度:
2.5
卫星平台:
Starlink V1.0
覆盖范围:
全球
运营商:
太空探索技术公司
运营商所在国:
美国
制造商(研发单位):
太空探索技术公司
制造商所在国:
美国
使用方式:
暂无
Satellite Introduction
星链(Starlink)计划是由太空探索技术公司(SpaceX)提出的一个巨型低轨卫星互联网星座项目,计划在2019年至2024年间在太空搭建由约1.2万颗卫星组成的“星链”网络,其中1584颗将部署在地球上空550千米处的近地轨道,并从2020年开始工作。该卫星仍在工作。
2D Orbit Map
3D Orbit Map
Orbit Altitude Analysis Chart
Orbit Inclination Analysis Chart
Orbit Comprehensive Analysis Chart
View Comprehensive Chart